IRAZU

Last updated on Mon May 28 2018 00:15:03 GMT+0000 (Coordinated Universal Time)

1 43468U 98067NR 18147.29162971 .00010279 00000-0 15573-3 0 9996 2 43468 51.6413 122.7602 0001560 68.0649 292.0492 15.55273690102433
UTC large
Height (km)
Speed (km/s)
/
Latitude / Longitude
Inclination (degrees)
Orbital Period (minutes)
Azimuth
Elevation
Range (km)
Doppler Factor

Next 0 passes for location: London (51.5072 / 0.1276)

Sorry there are no passes over London.